owner,sensor,date,latitude,longitude,vertical_datum,mass_concentration_of_oxygen_in_sea_water,qcFlag 
SCCF RECON,ioos:station:SCCF:13:1,2014-09-01T00:00:00Z,26.5255,-82.0032,2.748,5.01,1111122 
SCCF RECON,ioos:station:SCCF:13:1,2014-09-01T01:00:00Z,26.5255,-82.0032,2.73,4.66,1111122 
SCCF RECON,ioos:station:SCCF:13:1,2014-09-01T02:00:00Z,26.5255,-82.0032,2.66,4.54,1111122 
SCCF RECON,ioos:station:SCCF:13:1,2014-09-01T03:00:00Z,26.5255,-82.0032,2.6,3.98,1111122 
SCCF RECON,ioos:station:SCCF:13:1,2014-09-01T04:00:00Z,26.5255,-82.0032,2.59,4.13,1111122 
SCCF RECON,ioos:station:SCCF:13:1,2014-09-01T05:00:00Z,26.5255,-82.0032,2.66,3.85,1111122 
SCCF RECON,ioos:station:SCCF:13:1,2014-09-01T06:00:00Z,26.5255,-82.0032,2.73,3.43,1111122 
SCCF RECON,ioos:station:SCCF:13:1,2014-09-01T07:00:00Z,26.5255,-82.0032,2.79,3.73,1111122 
SCCF RECON,ioos:station:SCCF:13:1,2014-09-01T08:00:00Z,26.5255,-82.0032,2.84,4.13,1111122 
SCCF RECON,ioos:station:SCCF:13:1,2014-09-01T09:00:00Z,26.5255,-82.0032,2.88,4.25,1111122 
SCCF RECON,ioos:station:SCCF:13:1,2014-09-01T10:00:00Z,26.5255,-82.0032,2.89,4.04,1111122 
SCCF RECON,ioos:station:SCCF:13:1,2014-09-01T11:00:00Z,26.5255,-82.0032,2.867,3.78,1111122 
SCCF RECON,ioos:station:SCCF:13:1,2014-09-01T12:00:00Z,26.5255,-82.0032,2.8,3.5,1111122 
SCCF RECON,ioos:station:SCCF:13:1,2014-09-01T13:00:00Z,26.5255,-82.0032,2.7,3.39,1111122 
SCCF RECON,ioos:station:SCCF:13:1,2014-09-01T14:00:00Z,26.5255,-82.0032,2.62,3.83,1111122 
SCCF RECON,ioos:station:SCCF:13:1,2014-09-01T15:00:00Z,26.5255,-82.0032,2.54,4.06,1111122 
SCCF RECON,ioos:station:SCCF:13:1,2014-09-01T16:00:00Z,26.5255,-82.0032,2.47,4.11,1111122 
SCCF RECON,ioos:station:SCCF:13:1,2014-09-01T17:00:00Z,26.5255,-82.0032,2.418,4.17,1111122 
SCCF RECON,ioos:station:SCCF:13:1,2014-09-01T18:00:00Z,26.5255,-82.0032,2.442,4.14,1111122 
SCCF RECON,ioos:station:SCCF:13:1,2014-09-01T19:00:00Z,26.5255,-82.0032,2.538,4.33,1111122 
SCCF RECON,ioos:station:SCCF:13:1,2014-09-01T20:00:00Z,26.5255,-82.0032,2.6,3.74,1111122 
SCCF RECON,ioos:station:SCCF:13:1,2014-09-01T21:00:00Z,26.5255,-82.0032,2.66,4.47,1111122 
SCCF RECON,ioos:station:SCCF:13:1,2014-09-01T22:00:00Z,26.5255,-82.0032,2.67,4.16,1111122 
SCCF RECON,ioos:station:SCCF:13:1,2014-09-01T23:00:00Z,26.5255,-82.0032,2.66,3.86,1111122 
SCCF RECON,ioos:station:SCCF:13:1,2014-09-02T00:00:00Z,26.5255,-82.0032,2.7,4.22,1111122 
SCCF RECON,ioos:station:SCCF:13:1,2014-09-02T01:00:00Z,26.5255,-82.0032,2.74,4.36,1111122 
SCCF RECON,ioos:station:SCCF:13:1,2014-09-02T02:00:00Z,26.5255,-82.0032,2.71,4.14,1111122 
SCCF RECON,ioos:station:SCCF:13:1,2014-09-02T03:00:00Z,26.5255,-82.0032,2.64,4.1,1111122 
SCCF RECON,ioos:station:SCCF:13:1,2014-09-02T04:00:00Z,26.5255,-82.0032,2.6,3.78,1111122 
SCCF RECON,ioos:station:SCCF:13:1,2014-09-02T05:00:00Z,26.5255,-82.0032,2.58,3.63,1111122 
SCCF RECON,ioos:station:SCCF:13:1,2014-09-02T06:00:00Z,26.5255,-82.0032,2.63,3.47,1111122 
SCCF RECON,ioos:station:SCCF:13:1,2014-09-02T07:00:00Z,26.5255,-82.0032,2.69,3.35,1111122 
SCCF RECON,ioos:station:SCCF:13:1,2014-09-02T08:00:00Z,26.5255,-82.0032,2.75,3.52,1111122 
SCCF RECON,ioos:station:SCCF:13:1,2014-09-02T09:00:00Z,26.5255,-82.0032,2.81,3.84,1111122 
SCCF RECON,ioos:station:SCCF:13:1,2014-09-02T10:00:00Z,26.5255,-82.0032,2.85,4.05,1111122 
SCCF RECON,ioos:station:SCCF:13:1,2014-09-02T11:00:00Z,26.5255,-82.0032,2.84,3.65,1111122 
SCCF RECON,ioos:station:SCCF:13:1,2014-09-02T12:00:00Z,26.5255,-82.0032,2.797,3.46,1111122 
SCCF RECON,ioos:station:SCCF:13:1,2014-09-02T13:00:00Z,26.5255,-82.0032,2.75,3.38,1111122 
SCCF RECON,ioos:station:SCCF:13:1,2014-09-02T14:00:00Z,26.5255,-82.0032,2.68,3.26,1111122 
SCCF RECON,ioos:station:SCCF:13:1,2014-09-02T15:00:00Z,26.5255,-82.0032,2.59,3.41,1111122 
SCCF RECON,ioos:station:SCCF:13:1,2014-09-02T16:00:00Z,26.5255,-82.0032,2.5,4.08,1111122 
SCCF RECON,ioos:station:SCCF:13:1,2014-09-02T17:00:00Z,26.5255,-82.0032,2.41,4.13,1111122 
SCCF RECON,ioos:station:SCCF:13:1,2014-09-02T18:00:00Z,26.5255,-82.0032,2.361,4.23,1111122 
SCCF RECON,ioos:station:SCCF:13:1,2014-09-02T19:00:00Z,26.5255,-82.0032,2.352,4.18,1111122 
SCCF RECON,ioos:station:SCCF:13:1,2014-09-02T20:00:00Z,26.5255,-82.0032,2.43,4.24,1111122 
SCCF RECON,ioos:station:SCCF:13:1,2014-09-02T21:00:00Z,26.5255,-82.0032,2.485,4.17,1111122 
SCCF RECON,ioos:station:SCCF:13:1,2014-09-02T22:00:00Z,26.5255,-82.0032,2.51,4.44,1111122 
SCCF RECON,ioos:station:SCCF:13:1,2014-09-02T23:00:00Z,26.5255,-82.0032,2.571,4.07,1111122 
SCCF RECON,ioos:station:SCCF:13:1,2014-09-03T00:00:00Z,26.5255,-82.0032,2.63,4.11,1111122 
SCCF RECON,ioos:station:SCCF:13:1,2014-09-03T01:00:00Z,26.5255,-82.0032,2.7,4.01,1111122 
SCCF RECON,ioos:station:SCCF:13:1,2014-09-03T02:00:00Z,26.5255,-82.0032,2.654,4.08,1111122 
SCCF RECON,ioos:station:SCCF:13:1,2014-09-03T03:00:00Z,26.5255,-82.0032,2.67,3.9,1111122 
SCCF RECON,ioos:station:SCCF:13:1,2014-09-03T04:00:00Z,26.5255,-82.0032,2.65,3.8,1111122 
SCCF RECON,ioos:station:SCCF:13:1,2014-09-03T05:00:00Z,26.5255,-82.0032,2.61,3.84,1111122 
SCCF RECON,ioos:station:SCCF:13:1,2014-09-03T06:00:00Z,26.5255,-82.0032,2.56,3.67,1111122 
SCCF RECON,ioos:station:SCCF:13:1,2014-09-03T07:00:00Z,26.5255,-82.0032,2.58,3.22,1111122 
SCCF RECON,ioos:station:SCCF:13:1,2014-09-03T08:00:00Z,26.5255,-82.0032,2.67,2.91,1111122 
SCCF RECON,ioos:station:SCCF:13:1,2014-09-03T09:00:00Z,26.5255,-82.0032,2.73,3.31,1111122 
SCCF RECON,ioos:station:SCCF:13:1,2014-09-03T10:00:00Z,26.5255,-82.0032,2.78,3.48,1111122 
SCCF RECON,ioos:station:SCCF:13:1,2014-09-03T11:00:00Z,26.5255,-82.0032,2.83,3.75,1111122 
SCCF RECON,ioos:station:SCCF:13:1,2014-09-03T12:00:00Z,26.5255,-82.0032,2.856,3.71,1111122 
SCCF RECON,ioos:station:SCCF:13:1,2014-09-03T13:00:00Z,26.5255,-82.0032,2.84,3.55,1111122 
SCCF RECON,ioos:station:SCCF:13:1,2014-09-03T14:00:00Z,26.5255,-82.0032,2.79,3.21,1111122 
SCCF RECON,ioos:station:SCCF:13:1,2014-09-03T15:00:00Z,26.5255,-82.0032,2.669,3.32,1111122 
SCCF RECON,ioos:station:SCCF:13:1,2014-09-03T16:00:00Z,26.5255,-82.0032,2.576,3.72,1111122 
SCCF RECON,ioos:station:SCCF:13:1,2014-09-03T17:00:00Z,26.5255,-82.0032,2.5,4.05,1111122 
SCCF RECON,ioos:station:SCCF:13:1,2014-09-03T18:00:00Z,26.5255,-82.0032,2.409,4.03,1111122 
SCCF RECON,ioos:station:SCCF:13:1,2014-09-03T19:00:00Z,26.5255,-82.0032,2.33,4.1,1111122 
SCCF RECON,ioos:station:SCCF:13:1,2014-09-03T20:00:00Z,26.5255,-82.0032,2.345,3.98,1111122 
SCCF RECON,ioos:station:SCCF:13:1,2014-09-03T21:00:00Z,26.5255,-82.0032,2.379,4.2,1111122 
SCCF RECON,ioos:station:SCCF:13:1,2014-09-03T22:00:00Z,26.5255,-82.0032,2.409,4.1,1111122 
SCCF RECON,ioos:station:SCCF:13:1,2014-09-03T23:00:00Z,26.5255,-82.0032,2.47,3.81,1111122 
SCCF RECON,ioos:station:SCCF:13:1,2014-09-04T00:00:00Z,26.5255,-82.0032,2.55,3.74,1111122 
SCCF RECON,ioos:station:SCCF:13:1,2014-09-04T01:00:00Z,26.5255,-82.0032,2.62,3.96,1111122 
SCCF RECON,ioos:station:SCCF:13:1,2014-09-04T02:00:00Z,26.5255,-82.0032,2.69,4.02,1111122 
SCCF RECON,ioos:station:SCCF:13:1,2014-09-04T03:00:00Z,26.5255,-82.0032,2.7,4.3,1111122 
SCCF RECON,ioos:station:SCCF:13:1,2014-09-04T04:00:00Z,26.5255,-82.0032,2.7,4.22,1111122 
SCCF RECON,ioos:station:SCCF:13:1,2014-09-04T05:00:00Z,26.5255,-82.0032,2.69,3.98,1111122 
SCCF RECON,ioos:station:SCCF:13:1,2014-09-04T06:00:00Z,26.5255,-82.0032,2.61,3.83,1111122 
SCCF RECON,ioos:station:SCCF:13:1,2014-09-04T07:00:00Z,26.5255,-82.0032,2.58,4.03,1111122 
SCCF RECON,ioos:station:SCCF:13:1,2014-09-04T08:00:00Z,26.5255,-82.0032,2.61,3.33,1111122 
SCCF RECON,ioos:station:SCCF:13:1,2014-09-04T09:00:00Z,26.5255,-82.0032,2.64,2.83,1111122 
SCCF RECON,ioos:station:SCCF:13:1,2014-09-04T10:00:00Z,26.5255,-82.0032,2.75,3.19,1111122 
SCCF RECON,ioos:station:SCCF:13:1,2014-09-04T11:00:00Z,26.5255,-82.0032,2.82,3.42,1111122 
SCCF RECON,ioos:station:SCCF:13:1,2014-09-04T12:00:00Z,26.5255,-82.0032,2.85,3.71,1111122 
SCCF RECON,ioos:station:SCCF:13:1,2014-09-04T13:00:00Z,26.5255,-82.0032,2.877,3.73,1111122 
SCCF RECON,ioos:station:SCCF:13:1,2014-09-04T14:00:00Z,26.5255,-82.0032,2.88,3.77,1111122 
SCCF RECON,ioos:station:SCCF:13:1,2014-09-04T15:00:00Z,26.5255,-82.0032,2.86,3.85,1111122 
SCCF RECON,ioos:station:SCCF:13:1,2014-09-04T16:00:00Z,26.5255,-82.0032,2.77,3.63,1111122 
SCCF RECON,ioos:station:SCCF:13:1,2014-09-04T17:00:00Z,26.5255,-82.0032,2.647,3.76,1111122 
SCCF RECON,ioos:station:SCCF:13:1,2014-09-04T18:00:00Z,26.5255,-82.0032,2.554,3.94,1111122 
SCCF RECON,ioos:station:SCCF:13:1,2014-09-04T19:00:00Z,26.5255,-82.0032,2.45,4.16,1111122 
SCCF RECON,ioos:station:SCCF:13:1,2014-09-04T20:00:00Z,26.5255,-82.0032,2.35,4.21,1111122 
SCCF RECON,ioos:station:SCCF:13:1,2014-09-04T21:00:00Z,26.5255,-82.0032,2.309,4.09,1111122 
SCCF RECON,ioos:station:SCCF:13:1,2014-09-04T22:00:00Z,26.5255,-82.0032,2.34,4.0,1111122 
SCCF RECON,ioos:station:SCCF:13:1,2014-09-04T23:00:00Z,26.5255,-82.0032,2.45,3.95,1111122 
SCCF RECON,ioos:station:SCCF:13:1,2014-09-05T00:00:00Z,26.5255,-82.0032,2.55,3.71,1111122 
SCCF RECON,ioos:station:SCCF:13:1,2014-09-05T01:00:00Z,26.5255,-82.0032,2.64,3.84,1111122 
SCCF RECON,ioos:station:SCCF:13:1,2014-09-05T02:00:00Z,26.5255,-82.0032,2.69,4.15,1111122 
SCCF RECON,ioos:station:SCCF:13:1,2014-09-05T03:00:00Z,26.5255,-82.0032,2.74,4.3,1111122 
SCCF RECON,ioos:station:SCCF:13:1,2014-09-05T04:00:00Z,26.5255,-82.0032,2.74,4.68,1111122 
SCCF RECON,ioos:station:SCCF:13:1,2014-09-05T05:00:00Z,26.5255,-82.0032,2.69,4.49,1111122 
SCCF RECON,ioos:station:SCCF:13:1,2014-09-05T06:00:00Z,26.5255,-82.0032,2.635,4.22,1111122 
SCCF RECON,ioos:station:SCCF:13:1,2014-09-05T07:00:00Z,26.5255,-82.0032,2.576,4.29,1111122 
SCCF RECON,ioos:station:SCCF:13:1,2014-09-05T08:00:00Z,26.5255,-82.0032,2.53,3.61,1111122 
SCCF RECON,ioos:station:SCCF:13:1,2014-09-05T09:00:00Z,26.5255,-82.0032,2.53,3.73,1111122 
SCCF RECON,ioos:station:SCCF:13:1,2014-09-05T10:00:00Z,26.5255,-82.0032,2.6,3.5,1111122 
SCCF RECON,ioos:station:SCCF:13:1,2014-09-05T11:00:00Z,26.5255,-82.0032,2.712,3.48,1111122 
SCCF RECON,ioos:station:SCCF:13:1,2014-09-05T12:00:00Z,26.5255,-82.0032,2.81,3.52,1111122 
SCCF RECON,ioos:station:SCCF:13:1,2014-09-05T13:00:00Z,26.5255,-82.0032,2.87,3.97,1111122 
SCCF RECON,ioos:station:SCCF:13:1,2014-09-05T14:00:00Z,26.5255,-82.0032,2.89,3.92,1111122 
SCCF RECON,ioos:station:SCCF:13:1,2014-09-05T15:00:00Z,26.5255,-82.0032,2.903,4.11,1111122 
SCCF RECON,ioos:station:SCCF:13:1,2014-09-05T16:00:00Z,26.5255,-82.0032,2.85,4.3,1111122 
SCCF RECON,ioos:station:SCCF:13:1,2014-09-05T17:00:00Z,26.5255,-82.0032,2.748,3.97,1111122 
SCCF RECON,ioos:station:SCCF:13:1,2014-09-05T18:00:00Z,26.5255,-82.0032,2.61,4.11,1111122 
SCCF RECON,ioos:station:SCCF:13:1,2014-09-05T19:00:00Z,26.5255,-82.0032,2.501,4.36,1111122 
SCCF RECON,ioos:station:SCCF:13:1,2014-09-05T20:00:00Z,26.5255,-82.0032,2.413,4.57,1111122 
SCCF RECON,ioos:station:SCCF:13:1,2014-09-05T21:00:00Z,26.5255,-82.0032,2.333,4.41,1111122 
SCCF RECON,ioos:station:SCCF:13:1,2014-09-05T22:00:00Z,26.5255,-82.0032,2.29,4.25,1111122 
SCCF RECON,ioos:station:SCCF:13:1,2014-09-05T23:00:00Z,26.5255,-82.0032,2.292,3.92,1111122 
SCCF RECON,ioos:station:SCCF:13:1,2014-09-06T00:00:00Z,26.5255,-82.0032,2.43,4.18,1111122 
SCCF RECON,ioos:station:SCCF:13:1,2014-09-06T01:00:00Z,26.5255,-82.0032,2.53,4.13,1111122 
SCCF RECON,ioos:station:SCCF:13:1,2014-09-06T02:00:00Z,26.5255,-82.0032,2.6,3.62,1111122 
SCCF RECON,ioos:station:SCCF:13:1,2014-09-06T03:00:00Z,26.5255,-82.0032,2.64,3.83,1111122 
SCCF RECON,ioos:station:SCCF:13:1,2014-09-06T04:00:00Z,26.5255,-82.0032,2.7,4.06,1111122 
SCCF RECON,ioos:station:SCCF:13:1,2014-09-06T05:00:00Z,26.5255,-82.0032,2.7,4.36,1111122 
SCCF RECON,ioos:station:SCCF:13:1,2014-09-06T06:00:00Z,26.5255,-82.0032,2.64,4.11,1111122 
SCCF RECON,ioos:station:SCCF:13:1,2014-09-06T07:00:00Z,26.5255,-82.0032,2.579,4.02,1111122 
SCCF RECON,ioos:station:SCCF:13:1,2014-09-06T08:00:00Z,26.5255,-82.0032,2.491,3.83,1111122 
SCCF RECON,ioos:station:SCCF:13:1,2014-09-06T09:00:00Z,26.5255,-82.0032,2.44,3.7,1111122 
SCCF RECON,ioos:station:SCCF:13:1,2014-09-06T10:00:00Z,26.5255,-82.0032,2.47,3.84,1111122 
SCCF RECON,ioos:station:SCCF:13:1,2014-09-06T11:00:00Z,26.5255,-82.0032,2.54,3.41,1111122 
SCCF RECON,ioos:station:SCCF:13:1,2014-09-06T12:00:00Z,26.5255,-82.0032,2.64,3.26,1111122 
SCCF RECON,ioos:station:SCCF:13:1,2014-09-06T13:00:00Z,26.5255,-82.0032,2.75,3.45,1111122 
SCCF RECON,ioos:station:SCCF:13:1,2014-09-06T14:00:00Z,26.5255,-82.0032,2.83,3.93,1111122 
SCCF RECON,ioos:station:SCCF:13:1,2014-09-06T15:00:00Z,26.5255,-82.0032,2.89,3.85,1111122 
SCCF RECON,ioos:station:SCCF:13:1,2014-09-06T16:00:00Z,26.5255,-82.0032,2.91,3.91,1111122 
SCCF RECON,ioos:station:SCCF:13:1,2014-09-06T17:00:00Z,26.5255,-82.0032,2.86,4.28,1111122 
SCCF RECON,ioos:station:SCCF:13:1,2014-09-06T18:00:00Z,26.5255,-82.0032,2.72,4.13,1111122 
SCCF RECON,ioos:station:SCCF:13:1,2014-09-06T19:00:00Z,26.5255,-82.0032,2.579,4.07,1111122 
SCCF RECON,ioos:station:SCCF:13:1,2014-09-06T20:00:00Z,26.5255,-82.0032,2.485,4.3,1111122 
SCCF RECON,ioos:station:SCCF:13:1,2014-09-06T21:00:00Z,26.5255,-82.0032,2.415,4.29,1111122 
SCCF RECON,ioos:station:SCCF:13:1,2014-09-06T22:00:00Z,26.5255,-82.0032,2.301,4.13,1111122 
SCCF RECON,ioos:station:SCCF:13:1,2014-09-06T23:00:00Z,26.5255,-82.0032,2.24,3.86,1111122 
SCCF RECON,ioos:station:SCCF:13:1,2014-09-07T00:00:00Z,26.5255,-82.0032,2.26,3.88,1111122 
SCCF RECON,ioos:station:SCCF:13:1,2014-09-07T01:00:00Z,26.5255,-82.0032,2.41,3.97,1111122 
SCCF RECON,ioos:station:SCCF:13:1,2014-09-07T02:00:00Z,26.5255,-82.0032,2.54,3.85,1111122 
SCCF RECON,ioos:station:SCCF:13:1,2014-09-07T03:00:00Z,26.5255,-82.0032,2.619,3.61,1111122 
SCCF RECON,ioos:station:SCCF:13:1,2014-09-07T04:00:00Z,26.5255,-82.0032,2.7,3.68,1111122 
SCCF RECON,ioos:station:SCCF:13:1,2014-09-07T05:00:00Z,26.5255,-82.0032,2.75,4.08,1111122 
SCCF RECON,ioos:station:SCCF:13:1,2014-09-07T06:00:00Z,26.5255,-82.0032,2.715,4.15,1111122 
SCCF RECON,ioos:station:SCCF:13:1,2014-09-07T07:00:00Z,26.5255,-82.0032,2.62,3.85,1111122 
SCCF RECON,ioos:station:SCCF:13:1,2014-09-07T08:00:00Z,26.5255,-82.0032,2.53,3.8,1111122 
SCCF RECON,ioos:station:SCCF:13:1,2014-09-07T09:00:00Z,26.5255,-82.0032,2.47,3.52,1111122 
SCCF RECON,ioos:station:SCCF:13:1,2014-09-07T10:00:00Z,26.5255,-82.0032,2.44,3.56,1111122 
SCCF RECON,ioos:station:SCCF:13:1,2014-09-07T11:00:00Z,26.5255,-82.0032,2.39,3.62,1111122 
SCCF RECON,ioos:station:SCCF:13:1,2014-09-07T12:00:00Z,26.5255,-82.0032,2.5,3.59,1111122 
SCCF RECON,ioos:station:SCCF:13:1,2014-09-07T13:00:00Z,26.5255,-82.0032,2.69,3.15,1111122 
SCCF RECON,ioos:station:SCCF:13:1,2014-09-07T14:00:00Z,26.5255,-82.0032,2.81,3.42,1111122 
SCCF RECON,ioos:station:SCCF:13:1,2014-09-07T15:00:00Z,26.5255,-82.0032,2.9,3.82,1111122 
SCCF RECON,ioos:station:SCCF:13:1,2014-09-07T16:00:00Z,26.5255,-82.0032,2.97,4.07,1111122 
SCCF RECON,ioos:station:SCCF:13:1,2014-09-07T17:00:00Z,26.5255,-82.0032,2.968,4.47,1111122 
SCCF RECON,ioos:station:SCCF:13:1,2014-09-07T18:00:00Z,26.5255,-82.0032,2.88,4.69,1111122 
SCCF RECON,ioos:station:SCCF:13:1,2014-09-07T19:00:00Z,26.5255,-82.0032,2.761,4.54,1111122 
SCCF RECON,ioos:station:SCCF:13:1,2014-09-07T20:00:00Z,26.5255,-82.0032,2.64,4.55,1111122 
SCCF RECON,ioos:station:SCCF:13:1,2014-09-07T21:00:00Z,26.5255,-82.0032,2.526,4.56,1111122 
SCCF RECON,ioos:station:SCCF:13:1,2014-09-07T22:00:00Z,26.5255,-82.0032,2.42,4.38,1111122 
SCCF RECON,ioos:station:SCCF:13:1,2014-09-07T23:00:00Z,26.5255,-82.0032,2.33,4.0,1111122 
SCCF RECON,ioos:station:SCCF:13:1,2014-09-08T00:00:00Z,26.5255,-82.0032,2.28,3.83,1111122 
SCCF RECON,ioos:station:SCCF:13:1,2014-09-08T01:00:00Z,26.5255,-82.0032,2.38,3.74,1111122 
SCCF RECON,ioos:station:SCCF:13:1,2014-09-08T02:00:00Z,26.5255,-82.0032,2.545,3.71,1111122 
SCCF RECON,ioos:station:SCCF:13:1,2014-09-08T03:00:00Z,26.5255,-82.0032,2.66,3.34,1111122 
SCCF RECON,ioos:station:SCCF:13:1,2014-09-08T04:00:00Z,26.5255,-82.0032,2.729,3.77,1111122 
SCCF RECON,ioos:station:SCCF:13:1,2014-09-08T05:00:00Z,26.5255,-82.0032,2.78,4.04,1111122 
SCCF RECON,ioos:station:SCCF:13:1,2014-09-08T06:00:00Z,26.5255,-82.0032,2.81,4.21,1111122 
SCCF RECON,ioos:station:SCCF:13:1,2014-09-08T07:00:00Z,26.5255,-82.0032,2.74,4.17,1111122 
SCCF RECON,ioos:station:SCCF:13:1,2014-09-08T08:00:00Z,26.5255,-82.0032,2.64,4.05,1111122 
SCCF RECON,ioos:station:SCCF:13:1,2014-09-08T09:00:00Z,26.5255,-82.0032,2.53,3.72,1111122 
SCCF RECON,ioos:station:SCCF:13:1,2014-09-08T10:00:00Z,26.5255,-82.0032,2.46,3.64,1111122 
SCCF RECON,ioos:station:SCCF:13:1,2014-09-08T11:00:00Z,26.5255,-82.0032,2.4,3.67,1111122 
SCCF RECON,ioos:station:SCCF:13:1,2014-09-08T12:00:00Z,26.5255,-82.0032,2.39,3.53,1111122 
SCCF RECON,ioos:station:SCCF:13:1,2014-09-08T13:00:00Z,26.5255,-82.0032,2.52,3.58,1111122 
SCCF RECON,ioos:station:SCCF:13:1,2014-09-08T14:00:00Z,26.5255,-82.0032,2.705,3.13,1111122 
SCCF RECON,ioos:station:SCCF:13:1,2014-09-08T15:00:00Z,26.5255,-82.0032,2.821,3.51,1111122 
SCCF RECON,ioos:station:SCCF:13:1,2014-09-08T16:00:00Z,26.5255,-82.0032,2.9,3.97,1111122 
SCCF RECON,ioos:station:SCCF:13:1,2014-09-08T17:00:00Z,26.5255,-82.0032,2.96,4.3,1111122 
SCCF RECON,ioos:station:SCCF:13:1,2014-09-08T18:00:00Z,26.5255,-82.0032,2.98,4.47,1111122 
SCCF RECON,ioos:station:SCCF:13:1,2014-09-08T19:00:00Z,26.5255,-82.0032,2.9,4.54,1111122 
SCCF RECON,ioos:station:SCCF:13:1,2014-09-08T20:00:00Z,26.5255,-82.0032,2.769,4.46,1111122 
SCCF RECON,ioos:station:SCCF:13:1,2014-09-08T21:00:00Z,26.5255,-82.0032,2.62,4.45,1111122 
SCCF RECON,ioos:station:SCCF:13:1,2014-09-08T22:00:00Z,26.5255,-82.0032,2.53,4.76,1111122 
SCCF RECON,ioos:station:SCCF:13:1,2014-09-08T23:00:00Z,26.5255,-82.0032,2.44,4.43,1111122 
SCCF RECON,ioos:station:SCCF:13:1,2014-09-09T00:00:00Z,26.5255,-82.0032,2.37,4.12,1111122 
SCCF RECON,ioos:station:SCCF:13:1,2014-09-09T01:00:00Z,26.5255,-82.0032,2.36,3.86,1111122 
SCCF RECON,ioos:station:SCCF:13:1,2014-09-09T02:00:00Z,26.5255,-82.0032,2.51,3.73,1111122 
SCCF RECON,ioos:station:SCCF:13:1,2014-09-09T03:00:00Z,26.5255,-82.0032,2.65,3.61,1111122 
SCCF RECON,ioos:station:SCCF:13:1,2014-09-09T04:00:00Z,26.5255,-82.0032,2.706,3.69,1111122 
SCCF RECON,ioos:station:SCCF:13:1,2014-09-09T05:00:00Z,26.5255,-82.0032,2.77,3.94,1111122 
SCCF RECON,ioos:station:SCCF:13:1,2014-09-09T06:00:00Z,26.5255,-82.0032,2.82,4.18,1111122 
SCCF RECON,ioos:station:SCCF:13:1,2014-09-09T07:00:00Z,26.5255,-82.0032,2.78,4.42,1111122 
SCCF RECON,ioos:station:SCCF:13:1,2014-09-09T08:00:00Z,26.5255,-82.0032,2.69,4.13,1111122 
SCCF RECON,ioos:station:SCCF:13:1,2014-09-09T09:00:00Z,26.5255,-82.0032,2.58,3.84,1111122 
SCCF RECON,ioos:station:SCCF:13:1,2014-09-09T10:00:00Z,26.5255,-82.0032,2.48,3.64,1111122 
SCCF RECON,ioos:station:SCCF:13:1,2014-09-09T11:00:00Z,26.5255,-82.0032,2.4,3.63,1111122 
SCCF RECON,ioos:station:SCCF:13:1,2014-09-09T12:00:00Z,26.5255,-82.0032,2.33,3.49,1111122 
SCCF RECON,ioos:station:SCCF:13:1,2014-09-09T13:00:00Z,26.5255,-82.0032,2.345,3.55,1111122 
SCCF RECON,ioos:station:SCCF:13:1,2014-09-09T14:00:00Z,26.5255,-82.0032,2.55,3.57,1111122 
SCCF RECON,ioos:station:SCCF:13:1,2014-09-09T15:00:00Z,26.5255,-82.0032,2.683,3.31,1111122 
SCCF RECON,ioos:station:SCCF:13:1,2014-09-09T16:00:00Z,26.5255,-82.0032,2.795,3.55,1111122 
SCCF RECON,ioos:station:SCCF:13:1,2014-09-09T17:00:00Z,26.5255,-82.0032,2.875,4.33,1111122 
SCCF RECON,ioos:station:SCCF:13:1,2014-09-09T18:00:00Z,26.5255,-82.0032,2.91,4.74,1111122 
SCCF RECON,ioos:station:SCCF:13:1,2014-09-09T19:00:00Z,26.5255,-82.0032,2.899,4.97,1111122 
SCCF RECON,ioos:station:SCCF:13:1,2014-09-09T20:00:00Z,26.5255,-82.0032,2.81,5.11,1111122 
SCCF RECON,ioos:station:SCCF:13:1,2014-09-09T21:00:00Z,26.5255,-82.0032,2.67,4.84,1111122 
SCCF RECON,ioos:station:SCCF:13:1,2014-09-09T22:00:00Z,26.5255,-82.0032,2.579,4.6,1111122 
SCCF RECON,ioos:station:SCCF:13:1,2014-09-09T23:00:00Z,26.5255,-82.0032,2.48,4.64,1111122 
SCCF RECON,ioos:station:SCCF:13:1,2014-09-10T00:00:00Z,26.5255,-82.0032,2.39,4.5,1111122 
SCCF RECON,ioos:station:SCCF:13:1,2014-09-10T01:00:00Z,26.5255,-82.0032,2.33,4.27,1111122 
SCCF RECON,ioos:station:SCCF:13:1,2014-09-10T02:00:00Z,26.5255,-82.0032,2.38,3.93,1111122 
SCCF RECON,ioos:station:SCCF:13:1,2014-09-10T03:00:00Z,26.5255,-82.0032,2.549,3.8,1111122 
SCCF RECON,ioos:station:SCCF:13:1,2014-09-10T04:00:00Z,26.5255,-82.0032,2.63,3.52,1111122 
SCCF RECON,ioos:station:SCCF:13:1,2014-09-10T05:00:00Z,26.5255,-82.0032,2.685,3.75,1111122 
SCCF RECON,ioos:station:SCCF:13:1,2014-09-10T06:00:00Z,26.5255,-82.0032,2.75,3.98,1111122 
SCCF RECON,ioos:station:SCCF:13:1,2014-09-10T07:00:00Z,26.5255,-82.0032,2.77,4.03,1111122 
SCCF RECON,ioos:station:SCCF:13:1,2014-09-10T08:00:00Z,26.5255,-82.0032,2.72,4.01,1111122 
SCCF RECON,ioos:station:SCCF:13:1,2014-09-10T09:00:00Z,26.5255,-82.0032,2.61,3.96,1111122 
SCCF RECON,ioos:station:SCCF:13:1,2014-09-10T10:00:00Z,26.5255,-82.0032,2.49,3.56,1111122 
SCCF RECON,ioos:station:SCCF:13:1,2014-09-10T11:00:00Z,26.5255,-82.0032,2.404,3.61,1111122 
SCCF RECON,ioos:station:SCCF:13:1,2014-09-10T12:00:00Z,26.5255,-82.0032,2.32,3.55,1111122 
SCCF RECON,ioos:station:SCCF:13:1,2014-09-10T13:00:00Z,26.5255,-82.0032,2.25,3.61,1111122 
SCCF RECON,ioos:station:SCCF:13:1,2014-09-10T14:00:00Z,26.5255,-82.0032,2.288,3.72,1111122 
SCCF RECON,ioos:station:SCCF:13:1,2014-09-10T15:00:00Z,26.5255,-82.0032,2.48,3.67,1111122 
SCCF RECON,ioos:station:SCCF:13:1,2014-09-10T16:00:00Z,26.5255,-82.0032,2.612,3.51,1111122 
SCCF RECON,ioos:station:SCCF:13:1,2014-09-10T17:00:00Z,26.5255,-82.0032,2.7,3.5,1111122 
SCCF RECON,ioos:station:SCCF:13:1,2014-09-10T18:00:00Z,26.5255,-82.0032,2.79,4.59,1111122 
SCCF RECON,ioos:station:SCCF:13:1,2014-09-10T19:00:00Z,26.5255,-82.0032,2.84,4.8,1111122 
SCCF RECON,ioos:station:SCCF:13:1,2014-09-10T20:00:00Z,26.5255,-82.0032,2.851,4.8,1111122 
SCCF RECON,ioos:station:SCCF:13:1,2014-09-10T21:00:00Z,26.5255,-82.0032,2.75,4.89,1111122 
SCCF RECON,ioos:station:SCCF:13:1,2014-09-10T22:00:00Z,26.5255,-82.0032,2.65,4.58,1111122 
SCCF RECON,ioos:station:SCCF:13:1,2014-09-10T23:00:00Z,26.5255,-82.0032,2.54,4.37,1111122 
SCCF RECON,ioos:station:SCCF:13:1,2014-09-11T00:00:00Z,26.5255,-82.0032,2.46,4.51,1111122 
SCCF RECON,ioos:station:SCCF:13:1,2014-09-11T01:00:00Z,26.5255,-82.0032,2.39,4.3,1111122 
SCCF RECON,ioos:station:SCCF:13:1,2014-09-11T02:00:00Z,26.5255,-82.0032,2.36,4.14,1111122 
SCCF RECON,ioos:station:SCCF:13:1,2014-09-11T03:00:00Z,26.5255,-82.0032,2.48,4.01,1111122 
SCCF RECON,ioos:station:SCCF:13:1,2014-09-11T04:00:00Z,26.5255,-82.0032,2.638,3.67,1111122 
SCCF RECON,ioos:station:SCCF:13:1,2014-09-11T05:00:00Z,26.5255,-82.0032,2.73,3.88,1111122 
SCCF RECON,ioos:station:SCCF:13:1,2014-09-11T06:00:00Z,26.5255,-82.0032,2.79,3.98,1111122 
SCCF RECON,ioos:station:SCCF:13:1,2014-09-11T07:00:00Z,26.5255,-82.0032,2.84,4.11,1111122 
SCCF RECON,ioos:station:SCCF:13:1,2014-09-11T08:00:00Z,26.5255,-82.0032,2.84,4.12,1111122 
SCCF RECON,ioos:station:SCCF:13:1,2014-09-11T09:00:00Z,26.5255,-82.0032,2.77,4.01,1111122 
SCCF RECON,ioos:station:SCCF:13:1,2014-09-11T10:00:00Z,26.5255,-82.0032,2.65,3.84,1111122 
SCCF RECON,ioos:station:SCCF:13:1,2014-09-11T11:00:00Z,26.5255,-82.0032,2.52,3.66,1111122 
SCCF RECON,ioos:station:SCCF:13:1,2014-09-11T12:00:00Z,26.5255,-82.0032,2.42,3.73,1111122 
SCCF RECON,ioos:station:SCCF:13:1,2014-09-11T13:00:00Z,26.5255,-82.0032,2.35,3.72,1111122 
SCCF RECON,ioos:station:SCCF:13:1,2014-09-11T14:00:00Z,26.5255,-82.0032,2.29,3.75,1111122 
SCCF RECON,ioos:station:SCCF:13:1,2014-09-11T15:00:00Z,26.5255,-82.0032,2.339,3.75,1111122 
SCCF RECON,ioos:station:SCCF:13:1,2014-09-11T16:00:00Z,26.5255,-82.0032,2.52,3.81,1111122 
SCCF RECON,ioos:station:SCCF:13:1,2014-09-11T17:00:00Z,26.5255,-82.0032,2.63,3.76,1111122 
SCCF RECON,ioos:station:SCCF:13:1,2014-09-11T18:00:00Z,26.5255,-82.0032,2.69,3.8,1111122 
SCCF RECON,ioos:station:SCCF:13:1,2014-09-11T19:00:00Z,26.5255,-82.0032,2.75,4.5,1111122 
SCCF RECON,ioos:station:SCCF:13:1,2014-09-11T20:00:00Z,26.5255,-82.0032,2.79,4.71,1111122 
SCCF RECON,ioos:station:SCCF:13:1,2014-09-11T21:00:00Z,26.5255,-82.0032,2.764,4.83,1111122 